Regional Weather Roundup
Issued by NWS Green Bay, WI

Home | Current Version | Previous Version | Graphics & Text | Print | Product List | Glossary Off
Versions: 1 2 3 4 5 6 7 8 9 10 11 12 13 14 15 16 17 18 19 20 21 22 23 24 25 26 27 28 29 30 31 32 33 34 35 36 37 38 39 40 41 42 43 44 45 46 47 48 49 50

000
ASUS43 KGRB 181959
RWRGRB

NORTH-CENTRAL AND NORTHEAST WISCONSIN REGIONAL WEATHER ROUNDUP
NATIONAL WEATHER SERVICE GREEN BAY WI
300 PM CDT THU SEP 18 2014

WIZ005-009-010>012-018-019-182100-
NORTH CENTRAL WISCONSIN

CITY           SKY/WX    TMP DP  RH WIND       PRES   REMARKS
IRONWOOD       CLOUDY    54  46  76 SW6       30.11S
MANITOWISH WTR NOT AVBL
ARBOR VITAE    NOT AVBL
EAGLE RIVER    NOT AVBL
LAND O LAKES   NOT AVBL
RHINELANDER    CLOUDY    52  43  71 S7        30.16F
PHILLIPS       NOT AVBL
ANTIGO         NOT AVBL
TOMAHAWK       NOT AVBL
MERRILL        NOT AVBL
$$

WIZ013-073-182100-
NORTHEAST WISCONSIN

CITY           SKY/WX    TMP DP  RH WIND       PRES   REMARKS
IRON MOUNTAIN  MOSUNNY   58  40  51 SE5       30.14F
MARINETTE      SUNNY     54  43  66 SE8       30.18F
$$

WIZ017-030-035>037-045-182100-
CENTRAL WISCONSIN

CITY           SKY/WX    TMP DP  RH WIND       PRES   REMARKS
MEDFORD        NOT AVBL
WAUSAU         PTSUNNY   55  46  71 S9        30.15F
MOSINEE        CLOUDY    54  48  82 S6        30.17F
MARSHFIELD     CLOUDY    53  48  83 SE8       30.15F
WISC RAPIDS      N/A     56  48  74 E5        30.17F
STEVENS POINT  NOT AVBL
WAUPACA        NOT AVBL
SHAWANO        CLOUDY    56  45  67 CALM      30.18F
CLINTONVILLE   CLOUDY    54  45  71 E5        30.18F
$$

WIZ038-039-048-051-182100-
FOX VALLEY

CITY           SKY/WX    TMP DP  RH WIND       PRES   REMARKS
NWS GREEN BAY  CLOUDY    56  46  69 VRB3      30.18F
APPLETON       PTSUNNY   55  45  67 VRB5      30.18F
OSHKOSH        PTSUNNY   57  49  74 CALM      30.16F
FOND DU LAC    PTSUNNY   58  49  72 CALM      30.16F
$$

WIZ022-050-052-182100-
EAST CENTRAL WISCONSIN

CITY           SKY/WX    TMP DP  RH WIND       PRES   REMARKS
STURGEON BAY   CLOUDY    54  45  71 N6        30.19F
MANITOWOC      NOT AVBL
SHEBOYGAN      CLOUDY    59  48  67 E7        30.17F
$$

LMZ563-521-522-541>543-182100-
LAKESHORE

STATION/POSITION TIME  TEMP    WIND        PRES    VSBY  WAVE
                       AIR SEA DIR/SP/G                  HT/PER
                 (UTC) (F)     (DEG/KT/KT) (MB)    (MI)  (FT/S)
SHEBOYGAN LKSHOR 1900   50 49   30/ 11/ 12 1022.9F
KEWAUNEE LKSHORE 1900   54      50/  5/  9 1021.3F
TWO RIVERS CG    1900   55 59              1022.6      6   1
NORTHPORT PIER   1900   52      90/  5/  9 1022.7F
N MID LAKE BUOY  1900   51 59   50/  6/  8 1023.3F         1/ 3
S GREEN BAY BUOY 1900   52     VRB  6/  8  1023.2F
CHAMBERS ISLAND  1900   53     350/  8/ 10 1023.4F
MENOMINEE LKSHOR 1900   51      40/  6/  9 1022.9F
$$



USA.gov is the U.S. government's official web portal to all federal, state and local government web resources and services.